Location: Klickitat County Star Party
(45.8642°N, 120.6771°W)
Time: 11:07:29
(UTC-07:00)

Envisat - Visible Passes

Search period start: 23 October 2019 00:00
Search period end: 02 November 2019 00:00
Orbit: 764 x 766 km, 98.1° (Epoch: 23 October)

Date Brightness Start Highest point End Pass type
(mag) Time Alt. Az. Time Alt. Az. Time Alt. Az.
23 Oct 3.0 18:41:19 10° SSE 18:46:18 61° ENE 18:51:19 10° N visible
23 Oct 5.7 20:22:16 10° SW 20:25:44 18° W 20:29:14 10° NW visible
24 Oct 6.1 06:48:50 10° NE 06:52:12 18° E 06:55:33 10° SE visible
24 Oct 4.5 19:43:57 10° SSW 19:48:39 38° W 19:53:23 10° NNW visible
25 Oct 3.1 19:06:41 10° SSE 19:11:46 81° WSW 19:16:53 10° NNW visible
25 Oct 6.3 20:50:48 10° W 20:51:35 10° W 20:52:23 10° WNW visible
26 Oct 3.2 18:30:13 10° SE 18:35:04 49° ENE 18:39:58 10° N visible
26 Oct 5.4 20:10:23 10° SW 20:14:21 23° W 20:18:21 10° NW visible
27 Oct 6.3 06:38:11 10° ENE 06:40:47 14° E 06:43:23 10° ESE visible
27 Oct 4.0 19:32:26 10° S 19:37:20 48° W 19:42:15 10° NNW visible
28 Oct 2.9 18:55:26 10° SSE 19:00:30 82° ENE 19:05:37 10° NNW visible
28 Oct 6.1 20:37:44 10° WSW 20:40:10 13° W 20:42:36 10° WNW visible
29 Oct 5.8 07:02:32 10° NE 07:06:36 24° E 07:10:38 10° SE visible
29 Oct 3.4 18:19:11 10° SE 18:23:52 39° ENE 18:28:35 10° N visible
29 Oct 5.0 19:58:39 10° SSW 20:02:59 28° W 20:07:22 10° NW visible
30 Oct 6.6 06:28:06 10° ENE 06:29:22 11° E 06:30:38 10° E visible
30 Oct 3.6 19:21:01 10° S 19:26:01 60° W 19:31:04 10° NNW visible
31 Oct 3.0 18:44:14 10° SSE 18:49:15 66° ENE 18:54:18 10° N visible
31 Oct 5.8 20:25:31 10° SW 20:28:45 17° W 20:32:01 10° NW visible
01 Nov 6.0 06:51:37 10° NE 06:55:12 19° E 06:58:47 10° SE visible
01 Nov 4.6 19:47:01 10° SSW 19:51:38 35° W 19:56:17 10° NNW visible
